Location: Moonridge Observatory
(39.2268°N, 77.7914°W)
Time: 12:00:31
(UTC-04:00)

CZ-2C R/B - Visible Passes

Search period start: 28 May 2016 00:00
Search period end: 07 June 2016 00:00
Orbit: 705 x 908 km, 98.2° (Epoch: 27 May)

Date Brightness Start Highest point End Pass type
(mag) Time Alt. Az. Time Alt. Az. Time Alt. Az.
28 May 4.8 00:49:12 22° E 00:50:24 24° ENE 00:54:49 10° NNE visible
28 May 3.7 02:30:16 45° W 02:30:16 45° W 02:35:19 10° NNW visible
29 May 5.4 00:24:07 13° E 00:26:02 15° ENE 00:29:08 10° NNE visible
29 May 3.1 02:05:11 77° W 02:05:11 77° W 02:10:48 10° NNW visible
30 May 3.4 01:40:06 64° E 01:40:24 65° ENE 01:46:04 10° N visible
30 May 5.0 03:21:10 16° W 03:21:10 16° W 03:24:07 10° NW visible
31 May 4.1 01:15:01 38° E 01:15:49 40° ENE 01:21:07 10° N visible
31 May 4.4 02:56:05 27° W 02:56:05 27° W 03:00:30 10° NW visible
01 Jun 4.8 00:49:57 23° E 00:51:19 25° ENE 00:55:55 10° NNE visible
01 Jun 3.7 02:31:01 45° W 02:31:01 45° W 02:36:19 10° NNW visible
02 Jun 5.4 00:24:52 13° E 00:26:57 16° ENE 00:30:17 10° NNE visible
02 Jun 3.1 02:05:56 75° WSW 02:06:02 75° WSW 02:11:49 10° NNW visible
03 Jun 3.3 01:40:53 65° ESE 01:41:20 68° ENE 01:47:06 10° N visible
03 Jun 5.0 03:21:56 16° W 03:21:56 16° W 03:25:04 10° NW visible
04 Jun 4.1 01:15:48 39° E 01:16:45 42° ENE 01:22:09 10° N visible
04 Jun 4.4 02:56:52 26° W 02:56:52 26° W 03:01:29 10° NW visible
05 Jun 4.8 00:50:44 23° E 00:52:16 26° ENE 00:56:59 10° N visible
05 Jun 3.7 02:31:49 44° W 02:31:49 44° W 02:37:19 10° NNW visible
06 Jun 5.3 00:25:41 14° E 00:27:52 17° ENE 00:31:25 10° NNE visible
06 Jun 3.2 02:06:45 71° WSW 02:07:00 73° WSW 02:12:49 10° NNW visible
